Weather History for Litchfield, MN

Change the Weather History Date:

Wednesday, November 6, 2013

  Actual Average Record
Temperature  
Mean Temperature 32 °F -  
Max Temperature 37 °F 44 °F 69 °F (2001)
Min Temperature 28 °F 27 °F -1 °F (1991)
Degree Days  
Heating Degree Days 32    
Moisture  
Dew Point 27 °F    
Average Humidity 83    
Maximum Humidity 100    
Minimum Humidity 60    
Precipitation  
Precipitation 0.00 in - - ()
Sea Level Pressure  
Sea Level Pressure 30.10 in    
Wind  
Wind Speed 1 mph (WSW)    
Max Wind Speed 9 mph    
Max Gust Speed -    
Visibility 10 miles    
Events Snow    
Averages and records for this station are not official NWS values.
T = Trace of Precipitation, MM = Missing Value Source: NWS Daily Summary

Daily Weather History Graph

Daily Weather History Graph

Search for Another Location

Airport:

Trip Planner

Search our weather history database for the weather conditions in past years. The results will help you decide how hot, cold, wet, or windy it might be!

Date:

Astronomy

Nov. 06, 2013 Rise Set
Actual Time 7:03 AM CST 4:58 PM CST
Civil Twilight 6:32 AM CST 5:29 PM CST
Nautical Twilight 5:57 AM CST 6:04 PM CST
Astronomical Twilight 5:23 AM CST 6:39 PM CST
Moon 10:23 AM CST (11/6) 8:00 PM CST (11/6)
Length of Visible Light 10h 57m
Length of Day
9h 54m
Waxing Crescent, 14% of the Moon is Illuminated
Nov 6
Waxing Crescent
Nov 9
First Quarter
Nov 17
Full
Nov 25
Last Quarter
Dec 2
New

Hourly Weather History & Observations

Time (CST) Temp. Windchill Dew Point Humidity Pressure Visibility Wind Dir Wind Speed Gust Speed Precip Events Conditions
12:12 AM 32.0 °F - 32.0 °F 100% 30.06 in 10.0 mi Calm Calm - N/A   Mostly Cloudy
12:33 AM 32.0 °F - 30.2 °F 93% 30.07 in 5.0 mi Calm Calm - N/A Snow Light Snow
12:53 AM 32.0 °F - 30.2 °F 93% 30.07 in 10.0 mi Calm Calm - N/A   Overcast
1:12 AM 32.0 °F - 30.2 °F 93% 30.07 in 10.0 mi Calm Calm - N/A   Overcast
1:33 AM 32.0 °F - 30.2 °F 93% 30.07 in 10.0 mi Calm Calm - N/A   Overcast
1:53 AM 30.2 °F - 30.2 °F 100% 30.07 in 10.0 mi Calm Calm - N/A   Overcast
2:12 AM 32.0 °F - 30.2 °F 93% 30.07 in 10.0 mi Calm Calm - N/A Snow Light Snow
2:33 AM 32.0 °F - 30.2 °F 93% 30.07 in 10.0 mi Calm Calm - N/A   Mostly Cloudy
2:53 AM 32.0 °F - 30.2 °F 93% 30.07 in 10.0 mi Calm Calm - N/A   Overcast
3:12 AM 32.0 °F - 30.2 °F 93% 30.06 in 10.0 mi Calm Calm - N/A   Overcast
3:33 AM 32.0 °F - 30.2 °F 93% 30.06 in 10.0 mi Calm Calm - N/A   Overcast
3:52 AM 32.0 °F - 28.4 °F 87% 30.08 in 10.0 mi Calm Calm - N/A   Overcast
4:13 AM 30.2 °F - 28.4 °F 93% 30.07 in 10.0 mi Calm Calm - N/A   Overcast
4:32 AM 30.2 °F - 28.4 °F 93% 30.06 in 10.0 mi Calm Calm - N/A   Overcast
4:53 AM 30.2 °F 25.4 °F 28.4 °F 93% 30.06 in 10.0 mi NW 4.6 mph - N/A   Scattered Clouds
5:13 AM 30.2 °F - 26.6 °F 86% 30.06 in 10.0 mi Calm Calm - N/A   Clear
5:32 AM 28.4 °F - 26.6 °F 93% 30.06 in 10.0 mi Calm Calm - N/A   Clear
5:53 AM 30.2 °F - 26.6 °F 86% 30.06 in 10.0 mi Calm Calm - N/A   Clear
6:13 AM 28.4 °F - 26.6 °F 93% 30.07 in 10.0 mi Calm Calm - N/A   Clear
6:32 AM 28.4 °F - 26.6 °F 93% 30.07 in 10.0 mi Calm Calm - N/A   Clear
6:53 AM 28.4 °F 21.2 °F 24.8 °F 86% 30.07 in 10.0 mi NW 6.9 mph - N/A   Clear
7:13 AM 28.4 °F 24.6 °F 24.8 °F 86% 30.07 in 10.0 mi WNW 3.5 mph - N/A   Clear
7:32 AM 28.4 °F 21.2 °F 24.8 °F 86% 30.07 in 10.0 mi WNW 6.9 mph - N/A   Clear
7:53 AM 28.4 °F 20.4 °F 24.8 °F 86% 30.08 in 10.0 mi WNW 8.1 mph - N/A   Clear
8:13 AM 28.4 °F - 23.0 °F 80% 30.09 in 10.0 mi Calm Calm - N/A   Clear
8:32 AM 28.4 °F - 23.0 °F 80% 30.09 in 10.0 mi Calm Calm - N/A   Clear
8:53 AM 30.2 °F - 21.2 °F 69% 30.10 in 10.0 mi Calm Calm - N/A   Clear
9:12 AM 30.2 °F - 21.2 °F 69% 30.09 in 10.0 mi Calm Calm - N/A   Clear
9:33 AM 30.2 °F - 21.2 °F 69% 30.10 in 10.0 mi Calm Calm - N/A   Clear
9:53 AM 30.2 °F - 21.2 °F 69% 30.10 in 10.0 mi Calm Calm - N/A   Clear
10:13 AM 32.0 °F - 21.2 °F 64% 30.11 in 10.0 mi Calm Calm - N/A   Clear
10:32 AM 33.8 °F - 21.2 °F 60% 30.11 in 10.0 mi Calm Calm - N/A   Clear
10:53 AM 33.8 °F - 24.8 °F 70% 30.11 in 10.0 mi Calm Calm - N/A   Clear
11:13 AM 33.8 °F - 26.6 °F 75% 30.11 in 10.0 mi Calm Calm - N/A   Clear
11:32 AM 35.6 °F - 26.6 °F 70% 30.11 in 10.0 mi Calm Calm - N/A   Clear
11:53 AM 35.6 °F - 26.6 °F 70% 30.11 in 10.0 mi Calm Calm - N/A   Clear
12:12 PM 35.6 °F - 26.6 °F 70% 30.11 in 10.0 mi Calm Calm - N/A   Clear
12:33 PM 37.4 °F - 26.6 °F 65% 30.11 in 10.0 mi Calm Calm - N/A   Clear
12:53 PM 37.4 °F - 26.6 °F 65% 30.10 in 10.0 mi Calm Calm - N/A   Clear
1:12 PM 37.4 °F - 26.6 °F 65% 30.11 in 10.0 mi Calm Calm - N/A   Clear
1:33 PM 37.4 °F - 28.4 °F 70% 30.11 in 10.0 mi Calm Calm - N/A   Clear
1:53 PM 37.4 °F - 28.4 °F 70% 30.11 in 10.0 mi Calm Calm - N/A   Scattered Clouds
2:12 PM 37.4 °F - 28.4 °F 70% 30.11 in 10.0 mi Calm Calm - N/A   Mostly Cloudy
2:33 PM 35.6 °F - 28.4 °F 75% 30.11 in 10.0 mi Calm Calm - N/A   Overcast
2:53 PM 35.6 °F - 28.4 °F 75% 30.11 in 10.0 mi Calm Calm - N/A   Overcast
3:12 PM 35.6 °F - 28.4 °F 75% 30.12 in 10.0 mi Calm Calm - N/A   Overcast
3:33 PM 35.6 °F - 28.4 °F 75% 30.12 in 10.0 mi Calm Calm - N/A   Overcast
3:53 PM 33.8 °F - 26.6 °F 75% 30.12 in 10.0 mi Calm Calm - N/A   Overcast
4:12 PM 33.8 °F - 26.6 °F 75% 30.12 in 10.0 mi Calm Calm - N/A   Scattered Clouds
4:33 PM 32.0 °F - 26.6 °F 80% 30.12 in 10.0 mi Calm Calm - N/A   Clear
4:53 PM 30.2 °F - 26.6 °F 86% 30.12 in 10.0 mi Calm Calm - N/A   Clear
5:12 PM 30.2 °F - 26.6 °F 86% 30.12 in 10.0 mi Calm Calm - N/A   Scattered Clouds
5:33 PM 30.2 °F - 26.6 °F 86% 30.12 in 10.0 mi Calm Calm - N/A   Mostly Cloudy
5:52 PM 30.2 °F - 26.6 °F 86% 30.12 in 10.0 mi Calm Calm - N/A   Overcast
6:13 PM 28.4 °F 24.6 °F 26.6 °F 93% 30.13 in 10.0 mi SSW 3.5 mph - N/A   Overcast
6:33 PM 30.2 °F - 26.6 °F 86% 30.13 in 10.0 mi Calm Calm - N/A   Overcast
6:52 PM 30.2 °F 26.7 °F 26.6 °F 86% 30.13 in 10.0 mi SW 3.5 mph - N/A   Overcast
7:13 PM 30.2 °F 26.7 °F 26.6 °F 86% 30.13 in 10.0 mi SW 3.5 mph - N/A   Overcast
7:32 PM 30.2 °F - 26.6 °F 86% 30.13 in 10.0 mi Calm Calm - N/A   Overcast
7:53 PM 30.2 °F 25.4 °F 26.6 °F 86% 30.13 in 10.0 mi WSW 4.6 mph - N/A   Overcast
8:13 PM 30.2 °F 24.3 °F 26.6 °F 86% 30.13 in 10.0 mi WSW 5.8 mph - N/A   Mostly Cloudy
8:32 PM 30.2 °F 23.4 °F 26.6 °F 86% 30.13 in 10.0 mi WSW 6.9 mph - N/A   Scattered Clouds
8:53 PM 30.2 °F 22.6 °F 26.6 °F 86% 30.14 in 10.0 mi WSW 8.1 mph - N/A   Clear
9:12 PM 30.2 °F 21.9 °F 26.6 °F 86% 30.14 in 10.0 mi WSW 9.2 mph - N/A   Clear
9:32 PM 28.4 °F 22.2 °F 26.6 °F 93% 30.14 in 10.0 mi WSW 5.8 mph - N/A   Clear
9:53 PM 28.4 °F 23.3 °F 26.6 °F 93% 30.15 in 10.0 mi WSW 4.6 mph - N/A   Scattered Clouds
10:12 PM 28.4 °F - 26.6 °F 93% 30.15 in 10.0 mi Calm Calm - N/A   Mostly Cloudy
10:33 PM 28.4 °F 22.2 °F 26.6 °F 93% 30.16 in 10.0 mi WSW 5.8 mph - N/A   Scattered Clouds
10:52 PM 28.4 °F 23.3 °F 26.6 °F 93% 30.16 in 10.0 mi WSW 4.6 mph - N/A   Clear
11:13 PM 28.4 °F 23.3 °F 26.6 °F 93% 30.15 in 10.0 mi WSW 4.6 mph - N/A   Clear
11:32 PM 28.4 °F 23.3 °F 26.6 °F 93% 30.15 in 10.0 mi West 4.6 mph - N/A   Clear
11:53 PM 28.4 °F 22.2 °F 28.4 °F 100% 30.16 in 10.0 mi West 5.8 mph - N/A   Clear